Total_Precipitation_Accumulation
0.58 0.52 0.42 0.41 0.47 0.52 0.62 0.68 0.60 0.53 0.58 0.52 0.25 0.10 0.07 0.09 0.09 0.05 0.03 0.02 0.01 0.01 0.01 0.04 0.05 0.09 0.16 0.23 0.30 0.33 0.29 0.23 0.18 0.14 0.10 0.06 0.05 0.03
0.50 0.46 0.41 0.42 0.47 0.51 0.58 0.66 0.72 0.71 0.65 0.63 0.46 0.23 0.16 0.14 0.11 0.07 0.04 0.02 0.00 0.00 0.00 0.01 0.04 0.06 0.09 0.14 0.19 0.22 0.21 0.17 0.13 0.12 0.09 0.06 0.05 0.04
0.33 0.33 0.35 0.40 0.44 0.47 0.51 0.54 0.69 0.82 0.79 0.84 0.74 0.55 0.37 0.25 0.17 0.12 0.07 0.02 0.00 0.00 0.00 0.01 0.02 0.04 0.07 0.10 0.14 0.17 0.17 0.15 0.11 0.08 0.06 0.04 0.02 0.02
0.28 0.36 0.42 0.50 0.50 0.45 0.47 0.53 0.69 0.85 0.94 1.09 1.18 0.92 0.64 0.40 0.31 0.20 0.11 0.05 0.02 0.02 0.01 0.01 0.02 0.02 0.04 0.07 0.10 0.13 0.13 0.12 0.09 0.05 0.03 0.02 0.01 0.01
0.24 0.36 0.40 0.41 0.44 0.44 0.49 0.54 0.61 0.72 0.83 0.97 1.14 0.98 0.78 0.54 0.52 0.39 0.24 0.18 0.09 0.07 0.03 0.01 0.01 0.01 0.02 0.03 0.05 0.07 0.07 0.06 0.04 0.02 0.01 0.01 0.00 0.00
0.16 0.23 0.27 0.28 0.33 0.36 0.39 0.47 0.53 0.56 0.61 0.70 0.86 0.94 0.96 0.89 0.82 0.70 0.57 0.42 0.28 0.15 0.13 0.05 0.03 0.02 0.02 0.02 0.02 0.03 0.03 0.03 0.02 0.01 0.01 0.00 0.00 0.00
0.09 0.11 0.10 0.12 0.15 0.19 0.24 0.33 0.41 0.49 0.55 0.62 0.76 0.90 1.00 1.04 0.96 0.94 0.82 0.69 0.50 0.40 0.41 0.27 0.21 0.16 0.09 0.04 0.03 0.03 0.03 0.02 0.02 0.01 0.00 0.00 0.00 0.00
0.05 0.05 0.04 0.04 0.05 0.08 0.10 0.13 0.19 0.29 0.44 0.61 0.74 0.91 0.96 0.95 1.07 1.05 0.98 0.91 0.78 0.66 0.66 0.65 0.58 0.49 0.35 0.20 0.13 0.07 0.05 0.04 0.03 0.02 0.01 0.01 0.01 0.01
0.01 0.02 0.01 0.00 0.01 0.03 0.06 0.11 0.11 0.11 0.16 0.38 0.54 0.62 0.63 0.62 0.82 1.02 0.97 0.93 0.95 0.82 0.77 0.83 0.83 0.75 0.54 0.41 0.27 0.14 0.10 0.08 0.07 0.05 0.04 0.03 0.03 0.03
0.00 0.00 0.00 0.00 0.00 0.01 0.03 0.08 0.05 0.03 0.06 0.14 0.18 0.19 0.24 0.34 0.49 0.74 0.92 0.86 0.86 0.84 0.85 0.95 0.93 0.91 0.75 0.54 0.36 0.20 0.13 0.11 0.11 0.10 0.09 0.08 0.07 0.05
0.00 0.00 0.00 0.00 0.00 0.00 0.04 0.07 0.03 0.01 0.01 0.02 0.04 0.06 0.10 0.13 0.21 0.35 0.55 0.81 1.01 0.99 0.86 0.97 0.97 0.97 1.01 0.80 0.53 0.31 0.19 0.15 0.13 0.13 0.12 0.11 0.08 0.06
0.00 0.00 0.00 0.00 0.00 0.00 0.02 0.04 0.03 0.02 0.01 0.01 0.01 0.01 0.02 0.04 0.07 0.12 0.24 0.45 0.71 0.84 0.80 0.86 0.98 1.14 1.20 0.95 0.63 0.42 0.27 0.22 0.18 0.13 0.11 0.09 0.07 0.06
0.00 0.00 0.00 0.00 0.00 0.00 0.00 0.00 0.00 0.00 0.01 0.01 0.02 0.02 0.02 0.01 0.01 0.02 0.04 0.13 0.25 0.35 0.43 0.56 0.67 0.82 1.01 1.02 0.83 0.57 0.39 0.28 0.22 0.17 0.11 0.08 0.08 0.10
0.01 0.00 0.00 0.00 0.00 0.00 0.00 0.00 0.00 0.00 0.00 0.01 0.01 0.01 0.02 0.01 0.01 0.01 0.02 0.03 0.06 0.11 0.18 0.29 0.40 0.50 0.60 0.68 0.68 0.62 0.53 0.41 0.30 0.23 0.18 0.17 0.15 0.15
0.01 0.01 0.01 0.01 0.00 0.00 0.00 0.00 0.00 0.00 0.00 0.01 0.01 0.01 0.01 0.01 0.01 0.01 0.01 0.01 0.02 0.03 0.05 0.09 0.16 0.25 0.32 0.41 0.46 0.44 0.39 0.34 0.29 0.23 0.22 0.23 0.20 0.18
0.01 0.01 0.01 0.01 0.01 0.01 0.01 0.01 0.00 0.00 0.00 0.01 0.02 0.03 0.02 0.01 0.01 0.01 0.01 0.02 0.02 0.01 0.01 0.03 0.06 0.11 0.17 0.22 0.25 0.29 0.29 0.29 0.30 0.31 0.28 0.26 0.21 0.18
0.03 0.02 0.02 0.02 0.02 0.02 0.02 0.01 0.01 0.01 0.01 0.01 0.02 0.02 0.03 0.03 0.03 0.02 0.02 0.02 0.02 0.02 0.02 0.01 0.02 0.03 0.05 0.09 0.14 0.19 0.23 0.24 0.25 0.26 0.27 0.26 0.20 0.16
0.05 0.06 0.06 0.05 0.03 0.03 0.02 0.02 0.02 0.02 0.02 0.02 0.03 0.03 0.03 0.03 0.03 0.03 0.03 0.03 0.02 0.03 0.03 0.02 0.02 0.02 0.03 0.04 0.06 0.09 0.12 0.18 0.19 0.16 0.15 0.16 0.15 0.17
0.06 0.09 0.10 0.08 0.06 0.04 0.03 0.03 0.03 0.03 0.03 0.03 0.04 0.05 0.05 0.05 0.05 0.04 0.05 0.05 0.06 0.06 0.06 0.06 0.04 0.03 0.05 0.05 0.03 0.04 0.05 0.07 0.09 0.09 0.08 0.09 0.09 0.07
0.04 0.08 0.11 0.11 0.08 0.06 0.04 0.03 0.03 0.03 0.03 0.03 0.05 0.05 0.05 0.06 0.07 0.06 0.05 0.05 0.07 0.09 0.11 0.11 0.09 0.06 0.05 0.05 0.04 0.02 0.02 0.02 0.04 0.04 0.05 0.05 0.04 0.02
0.02 0.03 0.05 0.06 0.07 0.07 0.06 0.05 0.04 0.04 0.03 0.03 0.04 0.05 0.06 0.07 0.09 0.10 0.10 0.08 0.07 0.07 0.12 0.15 0.14 0.09 0.07 0.06 0.07 0.05 0.03 0.02 0.02 0.02 0.02 0.03 0.03 0.02
0.01 0.01 0.02 0.02 0.03 0.04 0.05 0.04 0.04 0.04 0.04 0.04 0.04 0.05 0.06 0.07 0.09 0.11 0.12 0.12 0.11 0.09 0.11 0.13 0.13 0.12 0.11 0.11 0.10 0.08 0.06 0.04 0.03 0.02 0.01 0.01 0.01 0.01
0.00 0.00 0.01 0.01 0.01 0.02 0.02 0.03 0.03 0.03 0.03 0.03 0.03 0.04 0.05 0.05 0.06 0.07 0.09 0.09 0.10 0.11 0.11 0.13 0.14 0.16 0.17 0.17 0.17 0.14 0.10 0.08 0.06 0.04 0.02 0.01 0.00 0.00